Simultaneous Nadir Overpasses (SNOs) Predictions

Prediction of SNOs between NOAA-20 and METOP-C Satellite Orbit:

Table of predicted SNOs for the next 14.0 days since TLE Epoch: 9/17/2023
Index Date (NOAA-20) Time (NOAA-20) Lat,Lon (NOAA-20) SZA (NOAA-20 ) Date (METOP-C) Time (METOP-C) Lat,Lon (METOP-C) SZA (METOP-C ) Distance(km) Time Diff (sec)
1 09/30/2023 19:02:39 73.59,-115.52 76.56 09/30/2023 19:03:46 73.54,-112.77 76.42 86.74 67
2 09/30/2023 19:53:21 -73.49, 52.02 103.54 09/30/2023 19:54:29 -73.47, 54.41 103.63 75.52 68
3 09/30/2023 20:44:03 73.30,-140.24 76.27 09/30/2023 20:45:13 73.26,-138.74 76.18 48.16 70
4 09/30/2023 21:34:45 -73.20, 27.30 103.82 09/30/2023 21:35:57 -73.15, 28.34 103.92 34.14 72
5 09/30/2023 22:25:27 73.00,-164.97 75.99 09/30/2023 22:26:40 72.98,-164.69 75.94 9.83 73
6 09/30/2023 23:16:09 -72.91, 2.55 104.11 09/30/2023 23:17:23 -72.92, 2.51 104.11 1.77 74
7 10/01/2023 00:06:55 72.91, 169.85 75.92 10/01/2023 00:08:03 72.90, 169.81 75.90 2.02 68
8 10/01/2023 00:57:39 -72.92, -22.84 104.07 10/01/2023 00:58:45 -72.89, -22.88 104.10 3.23 66
9 10/01/2023 01:48:25 72.92, 144.46 75.95 10/01/2023 01:49:24 72.92, 144.52 75.94 2.04 59



Historial Predications of SNOs between NOAA-20 and METOP-C
